Change the Weather History Date:

Tuesday, May 13, 2014

  Actual Average Record
Temperature  
Mean Temperature 42 °F -  
Max Temperature 53 °F 69 °F 91 °F (1988)
Min Temperature 30 °F 40 °F 28 °F (2000)
Degree Days  
Heating Degree Days 24    
Moisture  
Dew Point 24 °F    
Average Humidity 53    
Maximum Humidity 80    
Minimum Humidity 28    
Precipitation  
Precipitation 0.00 in - - ()
Sea Level Pressure  
Sea Level Pressure 30.42 in    
Wind  
Wind Speed 10 mph (NNW)    
Max Wind Speed 18 mph    
Max Gust Speed 24 mph    
Visibility 10 miles    
Events      
Averages and records for this station are not official NWS values.
T = Trace of Precipitation, MM = Missing Value Source: NWS Daily Summary

Daily Weather History Graph

Daily Weather History Graph

Search for Another Location

Airport or City:

Trip Planner

Search our weather history database for the weather conditions in past years. The results will help you decide how hot, cold, wet, or windy it might be!

Date:

Astronomy

May. 13, 2014 Rise Set
Actual Time 5:44 AM MDT 8:06 PM MDT
Civil Twilight 5:13 AM MDT 8:37 PM MDT
Nautical Twilight 4:35 AM MDT 9:15 PM MDT
Astronomical Twilight 3:53 AM MDT 9:57 PM MDT
Moon 7:10 PM MDT (5/13) 5:02 AM MDT (5/13)
Length of Visible Light 15h 23m
Length of Day
14h 22m
Waxing Gibbous, 99% of the Moon is Illuminated
May 13
Waxing Gibbous
May 14
Full
May 21
Last Quarter
May 28
New
Jun 5
First Quarter

Hourly Weather History & Observations

Time (MDT) Temp. Windchill Dew Point Humidity Pressure Visibility Wind Dir Wind Speed Gust Speed Precip Events Conditions
12:15 AM 32.0 °F 26.4 °F 24.8 °F 75% 30.41 in 10.0 mi North 5.8 mph - N/A   Overcast
12:35 AM 33.8 °F 29.6 °F 26.6 °F 75% 30.42 in 10.0 mi North 4.6 mph - N/A   Overcast
12:55 AM 35.6 °F 28.6 °F 26.6 °F 70% 30.42 in 10.0 mi NW 9.2 mph - N/A   Overcast
1:35 AM 35.6 °F 29.2 °F 26.6 °F 70% 30.41 in 10.0 mi NW 8.1 mph - N/A   Overcast
1:55 AM 35.6 °F 29.2 °F 26.6 °F 70% 30.41 in 10.0 mi NW 8.1 mph - N/A   Overcast
2:15 AM 33.8 °F 27.0 °F 24.8 °F 70% 30.41 in 10.0 mi NNW 8.1 mph - N/A   Mostly Cloudy
2:35 AM 32.0 °F 24.8 °F 24.8 °F 75% 30.40 in 10.0 mi NNW 8.1 mph - N/A   Partly Cloudy
2:55 AM 30.2 °F 22.6 °F 23.0 °F 75% 30.39 in 10.0 mi NNW 8.1 mph - N/A   Clear
3:15 AM 32.0 °F 24.8 °F 24.8 °F 75% 30.40 in 10.0 mi NNW 8.1 mph - N/A   Clear
3:35 AM 30.2 °F 22.6 °F 23.0 °F 75% 30.40 in 10.0 mi NNW 8.1 mph - N/A   Clear
3:55 AM 30.2 °F 22.6 °F 23.0 °F 75% 30.40 in 10.0 mi NNW 8.1 mph - N/A   Clear
4:15 AM 30.2 °F 22.6 °F 24.8 °F 80% 30.40 in 10.0 mi NNW 8.1 mph - N/A   Clear
4:35 AM 30.2 °F 22.6 °F 23.0 °F 75% 30.40 in 10.0 mi NNW 8.1 mph - N/A   Clear
4:55 AM 30.2 °F 23.4 °F 24.8 °F 80% 30.40 in 10.0 mi NNW 6.9 mph - N/A   Clear
5:15 AM 30.2 °F 22.6 °F 23.0 °F 75% 30.40 in 10.0 mi NNW 8.1 mph - N/A   Clear
5:35 AM 30.2 °F 24.3 °F 23.0 °F 75% 30.41 in 10.0 mi NNW 5.8 mph - N/A   Clear
5:55 AM 30.2 °F 23.4 °F 23.0 °F 75% 30.42 in 10.0 mi NNW 6.9 mph - N/A   Clear
6:15 AM 30.2 °F 23.4 °F 24.8 °F 80% 30.42 in 10.0 mi NW 6.9 mph - N/A   Clear
7:15 AM 33.8 °F 30.8 °F 24.8 °F 70% 30.45 in 10.0 mi NW 3.5 mph - N/A   Clear
7:35 AM 35.6 °F 29.2 °F 26.6 °F 70% 30.45 in 10.0 mi NW 8.1 mph - N/A   Clear
7:55 AM 37.4 °F 29.3 °F 26.6 °F 65% 30.45 in 10.0 mi NW 12.7 mph - N/A   Clear
8:15 AM 39.2 °F 30.8 °F 26.6 °F 61% 30.45 in 10.0 mi NW 15.0 mph - N/A   Clear
8:55 AM 42.8 °F 35.1 °F 26.6 °F 53% 30.45 in 10.0 mi NW 16.1 mph - N/A   Clear
10:35 AM 44.6 °F 37.8 °F 26.6 °F 49% 30.45 in 10.0 mi NW 15.0 mph 23.0 mph N/A   Overcast
10:55 AM 46.4 °F 40.1 °F 26.6 °F 46% 30.45 in 10.0 mi NNW 15.0 mph 24.2 mph N/A   Overcast
11:35 AM 46.4 °F 40.4 °F 21.2 °F 37% 30.45 in 10.0 mi NNW 13.8 mph 18.4 mph N/A   Overcast
11:55 AM 46.4 °F 40.7 °F 21.2 °F 37% 30.45 in 10.0 mi NNW 12.7 mph 18.4 mph N/A   Mostly Cloudy
12:15 PM 48.2 °F - 24.8 °F 40% 30.45 in 10.0 mi NNW 15.0 mph - N/A   Mostly Cloudy
12:35 PM 48.2 °F - 24.8 °F 40% 30.45 in 10.0 mi NNW 15.0 mph 21.9 mph N/A   Overcast
12:55 PM 48.2 °F - 23.0 °F 37% 30.44 in 10.0 mi NNW 13.8 mph 18.4 mph N/A   Overcast
1:15 PM 50.0 °F - 21.2 °F 32% 30.44 in 10.0 mi NW 18.4 mph 21.9 mph N/A   Mostly Cloudy
1:35 PM 50.0 °F - 24.8 °F 37% 30.44 in 10.0 mi NNW 15.0 mph 21.9 mph N/A   Mostly Cloudy
1:55 PM 50.0 °F - 21.2 °F 32% 30.44 in 10.0 mi NNW 10.4 mph 19.6 mph N/A   Mostly Cloudy
2:15 PM 51.8 °F - 23.0 °F 33% 30.44 in 10.0 mi North 11.5 mph 19.6 mph N/A   Mostly Cloudy
2:35 PM 51.8 °F - 21.2 °F 30% 30.43 in 10.0 mi NNW 11.5 mph 16.1 mph N/A   Scattered Clouds
2:55 PM 51.8 °F - 21.2 °F 30% 30.43 in 10.0 mi North 13.8 mph 20.7 mph N/A   Mostly Cloudy
3:15 PM 51.8 °F - 21.2 °F 30% 30.42 in 10.0 mi North 15.0 mph 20.7 mph N/A   Mostly Cloudy
3:35 PM 51.8 °F - 23.0 °F 33% 30.42 in 10.0 mi North 11.5 mph - N/A   Scattered Clouds
3:55 PM 51.8 °F - 21.2 °F 30% 30.41 in 10.0 mi NNW 10.4 mph 23.0 mph N/A   Partly Cloudy
4:15 PM 53.6 °F - 23.0 °F 30% 30.41 in 10.0 mi NW 13.8 mph 23.0 mph N/A   Partly Cloudy
4:35 PM 53.6 °F - 24.8 °F 33% 30.40 in 10.0 mi NNW 15.0 mph 20.7 mph N/A   Partly Cloudy
4:55 PM 53.6 °F - 23.0 °F 30% 30.40 in 10.0 mi NW 13.8 mph - N/A   Clear
5:15 PM 51.8 °F - 21.2 °F 30% 30.40 in 10.0 mi NNW 16.1 mph - N/A   Clear
5:35 PM 53.6 °F - 21.2 °F 28% 30.40 in 10.0 mi NNW 16.1 mph 24.2 mph N/A   Clear
5:55 PM 51.8 °F - 21.2 °F 30% 30.40 in 10.0 mi NNW 13.8 mph 20.7 mph N/A   Clear
6:15 PM 51.8 °F - 19.4 °F 28% 30.40 in 10.0 mi NNW 11.5 mph - N/A   Clear
6:35 PM 51.8 °F - 21.2 °F 30% 30.40 in 10.0 mi NNW 16.1 mph - N/A   Clear
6:55 PM 51.8 °F - 21.2 °F 30% 30.40 in 10.0 mi NNW 12.7 mph 17.3 mph N/A   Clear
7:15 PM 50.0 °F - 21.2 °F 32% 30.40 in 10.0 mi NNW 15.0 mph - N/A   Clear
7:35 PM 48.2 °F - 24.8 °F 40% 30.41 in 10.0 mi NNW 11.5 mph - N/A   Clear
7:55 PM 46.4 °F 41.5 °F 24.8 °F 43% 30.41 in 10.0 mi NNW 10.4 mph - N/A   Clear
8:15 PM 42.8 °F 38.6 °F 24.8 °F 49% 30.41 in 10.0 mi North 6.9 mph - N/A   Clear
8:55 PM 37.4 °F 32.8 °F 26.6 °F 65% 30.42 in 10.0 mi North 5.8 mph - N/A   Clear
9:15 PM 37.4 °F 30.8 °F 26.6 °F 65% 30.42 in 10.0 mi North 9.2 mph - N/A   Clear
9:35 PM 37.4 °F 30.3 °F 26.6 °F 65% 30.43 in 10.0 mi North 10.4 mph - N/A   Clear
9:55 PM 37.4 °F 29.8 °F 26.6 °F 65% 30.44 in 10.0 mi North 11.5 mph - N/A   Partly Cloudy
10:15 PM 39.2 °F 31.6 °F 28.4 °F 65% 30.45 in 10.0 mi North 12.7 mph - N/A   Scattered Clouds
10:35 PM 42.8 °F 37.0 °F 28.4 °F 57% 30.45 in 10.0 mi North 10.4 mph - N/A   Mostly Cloudy
10:55 PM 42.8 °F 36.2 °F 28.4 °F 57% 30.45 in 10.0 mi North 12.7 mph - N/A   Overcast
11:15 PM 42.8 °F 36.6 °F 28.4 °F 57% 30.45 in 10.0 mi North 11.5 mph - N/A   Mostly Cloudy
11:35 PM 42.8 °F 37.5 °F 28.4 °F 57% 30.45 in 10.0 mi North 9.2 mph - N/A   Overcast
11:55 PM 37.4 °F 33.8 °F 28.4 °F 70% 30.45 in 10.0 mi West 4.6 mph - N/A   Scattered Clouds